Home > Weather > Hartford > Past weeks

Flag for USA Past Weather in Hartford, Connecticut, USA — Yesterday and Last 2 Weeks

Now
72 °F

Clear.


Feels Like: 77 °F
Forecast: 64 / 84 °F
Wind: 7 mph from South

Location: Hartford-Brainard Airport

Current Time: Jun 26, 2016 at 10:22:57 PM

Latest Report: Jun 26, 2016 at 9:53 PM


Visibility: 10 mi

Pressure: 30.12 "Hg

Humidity: 55%

Dew Point: 55 °F

Location of HartfordLocation

Past Weather in Hartford — Graph

°F

Hartford Temperature Yesterday

Maximum temperature yesterday: 87 °F (at 3:53 PM)
Minimum temperature yesterday: 58 °F (at 4:53 AM)
Average temperature yesterday: 73 °F

High & Low Weather Summary for the Past Weeks

 TemperatureHumidityPressure
High88 °F (Jun 18, 2:53 PM)94% (Jun 12, 4:53 AM)30.32 "Hg (Jun 12, 4:53 AM)
Low56 °F (Jun 14, 4:53 AM)22% (Jun 18, 3:53 PM)29.55 "Hg (Jun 12, 7:53 AM)
Average72 °F55%29.95 "Hg
* Reported Jun 11 8:53 PM — Jun 26 8:53 PM, Hartford, Weather by CustomWeather, © 2016

Note: Actual official high and low records may vary slightly from our data, if they occured in-between our weather recording intervals... More about our weather records

Advertising

Hartford Weather History for the Previous 24 Hours

Scroll right to see more
 ConditionsComfort  
Time TempWeatherWind HumidityBarometerVisibility
8:53 PM
Sun, Jun 26
74 °FSunny.9 mph53%30.12 "Hg10 mi
7:53 PM77 °FSunny.8 mph52%30.12 "Hg10 mi
6:53 PM80 °FSunny.13 mph51%30.12 "Hg10 mi
5:53 PM83 °FSunny.15 mph48%30.12 "Hg10 mi
4:53 PM85 °FSunny.12 mph46%30.13 "Hg10 mi
3:53 PM87 °FSunny.15 mph43%30.14 "Hg10 mi
2:53 PM87 °FSunny.10 mph37%30.16 "Hg10 mi
1:53 PM87 °FSunny.14 mph42%30.17 "Hg10 mi
12:53 PM87 °FSunny.6 mph39%30.18 "Hg10 mi
11:53 AM83 °FSunny.3 mph41%30.19 "Hg10 mi
10:53 AM81 °FSunny.7 mph42%30.20 "Hg10 mi
9:53 AM77 °FSunny.3 mph50%30.20 "Hg10 mi
8:53 AM72 °FSunny.5 mph59%30.22 "Hg10 mi
7:53 AM68 °FSunny.No wind68%30.22 "Hg10 mi
6:53 AM65 °FSunny.No wind76%30.21 "Hg10 mi
5:53 AM61 °FClear.No wind87%30.22 "Hg10 mi
4:53 AM61 °FClear.No wind83%30.23 "Hg10 mi
3:53 AM62 °FClear.No wind80%30.24 "Hg10 mi
2:53 AM62 °FClear.5 mph78%30.23 "Hg10 mi
1:53 AM64 °FClear.5 mph70%30.21 "Hg10 mi
12:53 AM65 °FClear.3 mph66%30.21 "Hg10 mi
11:53 PM
Sat, Jun 25
67 °FClear.6 mph59%30.21 "Hg10 mi
10:53 PM68 °FClear.6 mph55%30.21 "Hg10 mi
Weather by CustomWeather, © 2016

See weather overviewHow to use our weather pages